Photometre #843[NE_1.6_Dp] Camborne_MO AOT

File : 20220922_843.hum

22/09/2022,07:03:06,TEMP=13.4,BA=5.68,STAT.A,ExtBa=12.20
22/09/2022,07:07:09,TEMP=13.6,BA=5.68,STAT.A,ExtBa=12.20
22/09/2022,07:11:52,TEMP=13.6,BA=5.68,STAT.A,ExtBa=12.20
22/09/2022,07:17:30,TEMP=13.7,BA=5.68,STAT.A,ExtBa=12.20
22/09/2022,07:24:17,TEMP=13.8,BA=5.68,STAT.A,ExtBa=12.20
22/09/2022,07:32:41,TEMP=14.0,BA=5.68,STAT.A,ExtBa=12.20
22/09/2022,07:36:23,TEMP=14.3,BA=5.68,STAT.D,ExtBa=12.10
22/09/2022,07:40:23,TEMP=14.5,BA=5.68,STAT.D,ExtBa=12.10
22/09/2022,07:43:19,TEMP=14.7,BA=5.68,STAT.B,ExtBa=12.10
22/09/2022,07:51:55,TEMP=15.5,BA=5.64,STAT.A,ExtBa=12.00
22/09/2022,07:54:29,TEMP=15.4,BA=5.64,STAT.A,ExtBa=12.10
22/09/2022,08:00:40,TEMP=15.2,BA=5.68,STAT.A,ExtBa=12.10
22/09/2022,08:04:23,TEMP=15.4,BA=5.68,STAT.D,ExtBa=12.10
22/09/2022,08:08:05,TEMP=15.6,BA=5.68,STAT.A,ExtBa=12.10
22/09/2022,08:16:39,TEMP=15.7,BA=5.68,STAT.C,ExtBa=12.10
22/09/2022,08:26:07,TEMP=17.1,BA=5.64,STAT.b=17.0
22/09/2022,08:26:57,TEMP=17.2,BA=5.64,STAT.A,ExtBa=12.00
22/09/2022,08:32:24,TEMP=17.3,BA=5.68,STAT.D,ExtBa=12.10
22/09/2022,08:38:36,TEMP=17.5,BA=5.68,STAT.A,ExtBa=12.10
22/09/2022,08:44:24,TEMP=17.6,BA=5.64,STAT.D,ExtBa=12.10
22/09/2022,08:48:24,TEMP=17.6,BA=5.64,STAT.D,ExtBa=12.10
22/09/2022,08:53:08,TEMP=17.6,BA=5.68,STAT.A,ExtBa=12.10
22/09/2022,08:56:24,TEMP=17.6,BA=5.68,STAT.D,ExtBa=12.10
22/09/2022,09:00:24,TEMP=17.7,BA=5.68,STAT.D,ExtBa=12.10
22/09/2022,09:04:24,TEMP=17.8,BA=5.68,STAT.D,ExtBa=12.10
22/09/2022,09:08:24,TEMP=17.9,BA=5.68,STAT.D,ExtBa=12.10
22/09/2022,09:11:21,TEMP=18.0,BA=5.68,STAT.A,ExtBa=12.10
22/09/2022,09:14:48,TEMP=18.1,BA=5.68,STAT.F,ExtBa=12.10
22/09/2022,09:24:12,TEMP=18.5,BA=5.64,STAT.b=17.0
22/09/2022,09:30:04,TEMP=18.1,BA=5.64,STAT.D,ExtBa=12.10
22/09/2022,09:44:24,TEMP=18.0,BA=5.68,STAT.D,ExtBa=12.10
22/09/2022,09:46:22,TEMP=18.4,BA=5.68,STAT.D,ExtBa=12.10
22/09/2022,09:59:47,TEMP=18.4,BA=5.68,STAT.D,ExtBa=12.10
22/09/2022,10:04:24,TEMP=18.6,BA=5.64,STAT.D,ExtBa=12.10
22/09/2022,10:14:49,TEMP=18.5,BA=5.68,STAT.F,ExtBa=12.10
22/09/2022,10:25:11,TEMP=19.4,BA=5.64,STAT.b=17.0
22/09/2022,10:30:03,TEMP=19.0,BA=5.64,STAT.D,ExtBa=12.10
22/09/2022,10:32:24,TEMP=19.2,BA=5.64,STAT.D,ExtBa=12.00
22/09/2022,10:36:24,TEMP=19.1,BA=5.64,STAT.D,ExtBa=12.10
22/09/2022,10:44:47,TEMP=18.7,BA=5.68,STAT.D,ExtBa=12.10
22/09/2022,10:48:24,TEMP=18.9,BA=5.68,STAT.D,ExtBa=12.10
22/09/2022,10:52:24,TEMP=19.0,BA=5.68,STAT.D,ExtBa=12.10
22/09/2022,10:56:24,TEMP=19.0,BA=5.68,STAT.D,ExtBa=12.10
22/09/2022,10:59:47,TEMP=19.0,BA=5.68,STAT.D,ExtBa=12.10
22/09/2022,11:12:24,TEMP=18.7,BA=5.68,STAT.D,ExtBa=12.10
22/09/2022,11:14:49,TEMP=19.0,BA=5.68,STAT.F,ExtBa=12.10
22/09/2022,11:39:24,TEMP=19.7,BA=5.64,STAT.D,ExtBa=12.00
22/09/2022,11:44:47,TEMP=19.1,BA=5.64,STAT.D,ExtBa=12.10
22/09/2022,11:48:24,TEMP=19.1,BA=5.64,STAT.D,ExtBa=12.00
22/09/2022,11:59:47,TEMP=18.8,BA=5.64,STAT.D,ExtBa=12.10
22/09/2022,12:04:24,TEMP=18.9,BA=5.64,STAT.D,ExtBa=12.10
22/09/2022,12:14:49,TEMP=18.6,BA=5.68,STAT.F,ExtBa=12.10
22/09/2022,12:28:25,TEMP=18.3,BA=5.68,STAT.D,ExtBa=12.10
22/09/2022,12:30:21,TEMP=18.7,BA=5.68,STAT.D,ExtBa=12.10
22/09/2022,12:44:24,TEMP=18.1,BA=5.68,STAT.D,ExtBa=12.10
22/09/2022,12:46:20,TEMP=18.6,BA=5.68,STAT.D,ExtBa=12.10
22/09/2022,12:59:47,TEMP=18.2,BA=5.68,STAT.D,ExtBa=12.10
22/09/2022,13:12:24,TEMP=18.1,BA=5.68,STAT.D,ExtBa=12.10
22/09/2022,13:14:49,TEMP=18.5,BA=5.68,STAT.F,ExtBa=12.10
22/09/2022,13:37:55,TEMP=19.5,BA=5.64,STAT.D,ExtBa=12.00
22/09/2022,13:44:47,TEMP=18.9,BA=5.64,STAT.D,ExtBa=12.00
22/09/2022,13:48:24,TEMP=19.2,BA=5.64,STAT.D,ExtBa=12.00
22/09/2022,13:59:47,TEMP=18.9,BA=5.68,STAT.D,ExtBa=12.10
22/09/2022,14:12:24,TEMP=18.4,BA=5.68,STAT.D,ExtBa=12.10
22/09/2022,14:14:49,TEMP=18.6,BA=5.68,STAT.F,ExtBa=12.10
22/09/2022,14:28:24,TEMP=18.3,BA=5.68,STAT.D,ExtBa=12.10
22/09/2022,14:30:21,TEMP=18.8,BA=5.68,STAT.D,ExtBa=12.10
22/09/2022,14:44:01,TEMP=18.9,BA=5.68,STAT.h
22/09/2022,14:44:24,TEMP=18.9,BA=5.68,STAT.h
22/09/2022,14:48:24,TEMP=18.2,BA=5.68,STAT.D,ExtBa=12.10
22/09/2022,14:59:47,TEMP=17.9,BA=5.68,STAT.D,ExtBa=12.10
22/09/2022,15:12:24,TEMP=17.5,BA=5.68,STAT.D,ExtBa=12.10
22/09/2022,15:14:48,TEMP=17.7,BA=5.68,STAT.F,ExtBa=12.10
22/09/2022,15:14:55,TEMP=17.7,BA=5.68,STAT.h
22/09/2022,15:17:55,TEMP=17.7,BA=5.68,STAT.h
22/09/2022,15:18:01,TEMP=17.7,BA=5.68,STAT.h
22/09/2022,15:28:01,TEMP=17.7,BA=5.68,STAT.h
22/09/2022,15:32:01,TEMP=17.7,BA=5.68,STAT.h
22/09/2022,15:36:01,TEMP=17.7,BA=5.68,STAT.h
22/09/2022,15:36:04,TEMP=17.7,BA=5.68,STAT.h
22/09/2022,15:40:01,TEMP=17.7,BA=5.68,STAT.h
22/09/2022,15:44:01,TEMP=17.7,BA=5.68,STAT.h
22/09/2022,15:48:01,TEMP=17.7,BA=5.68,STAT.h
22/09/2022,15:50:36,TEMP=17.7,BA=5.68,STAT.h
22/09/2022,15:50:37,TEMP=17.7,BA=5.68,STAT.h
22/09/2022,15:52:01,TEMP=17.7,BA=5.68,STAT.h
22/09/2022,15:56:01,TEMP=17.7,BA=5.68,STAT.h
22/09/2022,16:00:01,TEMP=17.7,BA=5.68,STAT.h
22/09/2022,16:02:32,TEMP=17.7,BA=5.68,STAT.h
22/09/2022,16:02:33,TEMP=17.7,BA=5.68,STAT.h
22/09/2022,16:04:01,TEMP=17.7,BA=5.68,STAT.h
22/09/2022,16:08:01,TEMP=17.7,BA=5.68,STAT.h
22/09/2022,16:12:01,TEMP=17.7,BA=5.68,STAT.h
22/09/2022,16:12:33,TEMP=17.7,BA=5.68,STAT.h
22/09/2022,16:16:01,TEMP=17.7,BA=5.68,STAT.h
22/09/2022,16:20:01,TEMP=17.7,BA=5.68,STAT.h
22/09/2022,16:21:07,TEMP=17.7,BA=5.68,STAT.h
22/09/2022,16:21:08,TEMP=17.7,BA=5.68,STAT.h
22/09/2022,16:24:01,TEMP=17.7,BA=5.68,STAT.h
22/09/2022,16:28:01,TEMP=17.7,BA=5.68,STAT.h
22/09/2022,16:28:32,TEMP=17.7,BA=5.68,STAT.h
22/09/2022,16:28:33,TEMP=17.7,BA=5.68,STAT.h
22/09/2022,16:32:01,TEMP=17.7,BA=5.68,STAT.h
22/09/2022,16:35:02,TEMP=17.7,BA=5.68,STAT.h
22/09/2022,16:35:03,TEMP=17.7,BA=5.68,STAT.h
22/09/2022,16:36:01,TEMP=17.7,BA=5.68,STAT.h
22/09/2022,16:40:01,TEMP=17.7,BA=5.68,STAT.h
22/09/2022,16:40:46,TEMP=17.7,BA=5.68,STAT.h
22/09/2022,16:40:47,TEMP=17.7,BA=5.68,STAT.h
22/09/2022,16:44:01,TEMP=17.7,BA=5.68,STAT.h
22/09/2022,16:45:53,TEMP=17.7,BA=5.68,STAT.h
22/09/2022,16:48:01,TEMP=17.7,BA=5.68,STAT.h
22/09/2022,16:52:01,TEMP=17.7,BA=5.68,STAT.h
22/09/2022,16:56:01,TEMP=17.7,BA=5.68,STAT.h
22/09/2022,16:56:31,TEMP=17.7,BA=5.68,STAT.h
22/09/2022,16:56:32,TEMP=17.7,BA=5.68,STAT.h
22/09/2022,17:00:01,TEMP=17.7,BA=5.68,STAT.h
22/09/2022,17:04:01,TEMP=17.7,BA=5.68,STAT.h
22/09/2022,17:04:55,TEMP=17.7,BA=5.68,STAT.h
22/09/2022,17:05:01,TEMP=17.7,BA=5.68,STAT.h
22/09/2022,17:11:42,TEMP=17.7,BA=5.68,STAT.h
22/09/2022,17:11:43,TEMP=17.7,BA=5.68,STAT.h
22/09/2022,17:12:01,TEMP=17.7,BA=5.68,STAT.h
22/09/2022,17:16:01,TEMP=17.7,BA=5.68,STAT.h
22/09/2022,17:17:20,TEMP=17.7,BA=5.68,STAT.h
22/09/2022,17:17:27,TEMP=17.7,BA=5.68,STAT.h
22/09/2022,17:19:24,TEMP=17.7,BA=5.68,STAT.h
22/09/2022,17:20:01,TEMP=17.7,BA=5.68,STAT.h
22/09/2022,17:22:03,TEMP=17.7,BA=5.68,STAT.h
22/09/2022,17:22:04,TEMP=17.7,BA=5.68,STAT.h
22/09/2022,17:24:01,TEMP=17.7,BA=5.68,STAT.h
22/09/2022,17:26:05,TEMP=17.7,BA=5.68,STAT.h
22/09/2022,17:26:11,TEMP=17.7,BA=5.68,STAT.h